Total_Precipitation_Accumulation
0.70 0.72 0.71 0.61 0.49 0.47 0.47 0.45 0.45 0.49 0.55 0.56 0.59 0.65 0.65 0.67 0.69 0.70 0.75 0.81 0.88 0.98 1.04 1.15 1.35 1.55 1.61 1.60 1.62 1.64 1.64 1.54 1.31 1.20 0.99 0.96 1.12 1.13 1.13 1.06 1.13 1.18 0.96
0.65 0.62 0.58 0.51 0.44 0.43 0.41 0.38 0.40 0.45 0.47 0.49 0.54 0.58 0.58 0.64 0.66 0.66 0.65 0.67 0.77 0.84 0.85 0.85 0.95 1.18 1.33 1.44 1.50 1.52 1.59 1.60 1.46 1.43 1.32 1.09 1.06 1.13 1.25 1.32 1.25 1.22 1.17
0.70 0.60 0.56 0.52 0.49 0.47 0.42 0.41 0.41 0.48 0.59 0.62 0.61 0.64 0.62 0.64 0.64 0.65 0.68 0.69 0.72 0.76 0.79 0.81 0.86 0.96 1.11 1.19 1.31 1.41 1.49 1.61 1.60 1.43 1.45 1.38 1.20 1.18 1.23 1.31 1.36 1.45 1.33
0.90 0.77 0.68 0.61 0.54 0.48 0.44 0.43 0.42 0.45 0.51 0.54 0.63 0.71 0.79 0.83 0.82 0.78 0.77 0.74 0.70 0.71 0.77 0.84 0.86 0.87 0.98 1.19 1.32 1.39 1.42 1.52 1.64 1.58 1.51 1.48 1.34 1.26 1.26 1.29 1.42 1.51 1.50
0.92 0.80 0.66 0.55 0.45 0.43 0.46 0.49 0.46 0.41 0.44 0.45 0.53 0.62 0.72 0.81 0.86 0.86 0.72 0.61 0.62 0.66 0.67 0.68 0.76 0.83 0.86 1.00 1.16 1.39 1.41 1.51 1.58 1.65 1.57 1.42 1.31 1.23 1.18 1.19 1.28 1.47 1.53
0.74 0.70 0.54 0.48 0.43 0.39 0.42 0.48 0.49 0.39 0.38 0.39 0.44 0.42 0.45 0.50 0.66 0.66 0.54 0.45 0.50 0.60 0.67 0.69 0.69 0.70 0.72 0.76 0.79 1.04 1.24 1.35 1.44 1.46 1.50 1.37 1.25 1.19 1.27 1.27 1.22 1.28 1.39
0.45 0.45 0.36 0.34 0.41 0.42 0.45 0.44 0.38 0.31 0.34 0.36 0.32 0.28 0.30 0.34 0.39 0.38 0.43 0.45 0.48 0.52 0.61 0.70 0.74 0.72 0.78 0.86 0.82 0.86 0.95 1.03 1.14 1.25 1.28 1.22 1.19 1.15 1.23 1.27 1.25 1.20 1.11
0.20 0.17 0.14 0.21 0.30 0.32 0.30 0.28 0.23 0.23 0.29 0.36 0.31 0.29 0.33 0.30 0.32 0.37 0.40 0.42 0.56 0.62 0.61 0.62 0.73 0.79 0.84 0.99 0.98 1.06 0.99 0.89 0.87 0.92 1.05 1.09 1.05 1.15 1.24 1.40 1.46 1.33 1.23
0.02 0.02 0.04 0.05 0.06 0.06 0.06 0.07 0.11 0.15 0.20 0.19 0.23 0.37 0.38 0.34 0.42 0.40 0.35 0.42 0.55 0.62 0.58 0.61 0.73 0.83 0.96 1.06 1.11 1.14 1.04 0.94 0.97 1.05 1.11 1.16 1.17 1.25 1.33 1.39 1.44 1.42 1.33
0.00 0.00 0.00 0.01 0.01 0.01 0.01 0.01 0.03 0.06 0.09 0.10 0.14 0.27 0.34 0.36 0.36 0.28 0.28 0.40 0.53 0.60 0.62 0.63 0.85 0.85 0.93 0.98 1.04 1.16 1.18 1.04 0.96 0.99 1.03 1.05 1.05 1.15 1.35 1.36 1.45 1.51 1.37
0.00 0.00 0.00 0.01 0.01 0.01 0.02 0.01 0.01 0.01 0.02 0.06 0.10 0.14 0.15 0.16 0.16 0.17 0.24 0.31 0.38 0.50 0.58 0.62 0.60 0.71 0.74 0.84 0.95 1.03 1.23 1.11 1.04 1.05 1.03 0.94 0.91 0.98 1.10 1.27 1.40 1.46 1.39
0.00 0.00 0.00 0.01 0.01 0.01 0.03 0.02 0.01 0.01 0.02 0.03 0.06 0.10 0.09 0.08 0.07 0.10 0.13 0.17 0.24 0.32 0.40 0.52 0.52 0.59 0.65 0.72 0.74 0.91 1.08 1.05 0.99 1.05 1.05 0.98 0.90 0.89 0.91 0.98 1.15 1.22 1.19
0.00 0.01 0.00 0.00 0.01 0.01 0.01 0.01 0.01 0.01 0.02 0.02 0.04 0.08 0.09 0.10 0.09 0.09 0.11 0.14 0.19 0.23 0.26 0.41 0.49 0.55 0.54 0.55 0.67 0.85 0.91 0.95 1.08 1.04 1.05 0.98 0.90 0.87 0.80 0.84 0.96 1.03 1.02
0.00 0.00 0.00 0.00 0.01 0.01 0.01 0.01 0.01 0.02 0.02 0.02 0.04 0.06 0.11 0.13 0.09 0.09 0.13 0.17 0.20 0.22 0.25 0.38 0.50 0.56 0.55 0.54 0.61 0.74 0.81 0.93 1.08 1.00 0.97 0.92 0.85 0.85 0.82 0.82 0.86 0.92 0.97
0.00 0.00 0.00 0.01 0.01 0.01 0.01 0.01 0.01 0.01 0.02 0.03 0.03 0.05 0.06 0.07 0.07 0.11 0.15 0.19 0.22 0.24 0.32 0.49 0.63 0.65 0.64 0.61 0.64 0.74 0.73 0.71 0.80 0.80 0.83 0.84 0.82 0.82 0.78 0.72 0.75 0.78 0.83
0.00 0.00 0.00 0.01 0.01 0.01 0.02 0.02 0.01 0.02 0.03 0.03 0.03 0.04 0.04 0.06 0.08 0.12 0.17 0.22 0.24 0.34 0.51 0.69 0.81 0.88 0.88 0.80 0.76 0.74 0.68 0.66 0.67 0.70 0.78 0.79 0.76 0.79 0.78 0.71 0.72 0.74 0.76
0.00 0.00 0.00 0.00 0.01 0.01 0.01 0.02 0.03 0.03 0.02 0.02 0.03 0.03 0.04 0.07 0.11 0.19 0.25 0.29 0.35 0.57 0.80 0.84 0.86 0.91 0.93 0.86 0.76 0.68 0.57 0.52 0.54 0.60 0.63 0.65 0.68 0.69 0.73 0.73 0.71 0.69 0.66
0.00 0.00 0.00 0.01 0.01 0.01 0.01 0.01 0.03 0.05 0.06 0.04 0.03 0.03 0.04 0.07 0.15 0.25 0.38 0.48 0.54 0.69 0.83 0.86 0.93 0.91 0.87 0.76 0.63 0.53 0.44 0.42 0.45 0.48 0.47 0.45 0.50 0.56 0.61 0.66 0.68 0.66 0.61
0.01 0.01 0.01 0.01 0.02 0.02 0.02 0.02 0.03 0.04 0.05 0.05 0.06 0.06 0.06 0.08 0.12 0.18 0.25 0.32 0.33 0.41 0.48 0.54 0.58 0.58 0.54 0.48 0.42 0.39 0.35 0.34 0.36 0.38 0.40 0.40 0.44 0.46 0.47 0.52 0.59 0.65 0.65
0.01 0.01 0.02 0.02 0.03 0.03 0.03 0.04 0.04 0.05 0.05 0.06 0.06 0.07 0.09 0.11 0.13 0.14 0.15 0.17 0.20 0.21 0.24 0.25 0.27 0.27 0.27 0.28 0.29 0.31 0.33 0.34 0.35 0.38 0.40 0.41 0.44 0.47 0.45 0.46 0.51 0.56 0.58
0.02 0.03 0.03 0.03 0.04 0.04 0.04 0.05 0.06 0.06 0.06 0.06 0.06 0.08 0.10 0.12 0.13 0.15 0.16 0.18 0.19 0.19 0.20 0.21 0.21 0.22 0.23 0.25 0.29 0.32 0.35 0.35 0.35 0.38 0.41 0.40 0.42 0.46 0.47 0.49 0.51 0.54 0.56
0.03 0.03 0.03 0.04 0.05 0.05 0.05 0.05 0.05 0.06 0.07 0.08 0.08 0.08 0.11 0.14 0.17 0.18 0.18 0.20 0.22 0.23 0.22 0.23 0.23 0.25 0.26 0.28 0.33 0.38 0.39 0.40 0.39 0.39 0.42 0.44 0.45 0.47 0.46 0.48 0.50 0.55 0.58
0.05 0.05 0.06 0.06 0.06 0.06 0.07 0.06 0.07 0.08 0.09 0.10 0.10 0.10 0.11 0.13 0.16 0.18 0.19 0.20 0.23 0.23 0.22 0.23 0.25 0.26 0.27 0.28 0.32 0.38 0.42 0.44 0.46 0.47 0.48 0.49 0.50 0.51 0.52 0.51 0.49 0.50 0.55
0.06 0.06 0.07 0.07 0.07 0.08 0.09 0.09 0.09 0.09 0.10 0.11 0.11 0.11 0.12 0.13 0.14 0.15 0.17 0.20 0.22 0.23 0.24 0.24 0.25 0.27 0.28 0.31 0.34 0.36 0.38 0.42 0.48 0.54 0.56 0.56 0.54 0.54 0.57 0.58 0.55 0.55 0.60
0.07 0.07 0.07 0.08 0.09 0.09 0.09 0.10 0.11 0.11 0.12 0.13 0.14 0.14 0.15 0.16 0.18 0.20 0.22 0.23 0.25 0.26 0.25 0.25 0.26 0.27 0.29 0.32 0.34 0.36 0.42 0.45 0.47 0.51 0.55 0.59 0.57 0.58 0.59 0.58 0.59 0.61 0.65
0.06 0.07 0.08 0.09 0.09 0.09 0.10 0.10 0.11 0.14 0.15 0.16 0.16 0.19 0.21 0.23 0.23 0.24 0.27 0.29 0.30 0.30 0.29 0.30 0.29 0.29 0.28 0.29 0.31 0.35 0.42 0.45 0.46 0.50 0.54 0.58 0.62 0.61 0.61 0.63 0.60 0.59 0.61